Tracking 21612 objects as of 21-Oct-2020
HD Live streaming from Space Station
objects crossing your sky now

SL-8 R/B

Track SL-8 R/B now!
10-day predictions


NORAD ID: 8874
Int'l Code: 1976-051B
Perigee: 970.5 km
Apogee: 1,007.4 km
Inclination: 83.0 °
Period: 104.7 minutes
Semi major axis: 7359 km
RCS: 5.0446 m2 (large)
Launch date: June 2, 1976
Source: Commonwealth of Independent States (former USSR) (CIS)
Launch site: PLESETSK MISSILE AND SPACE COMPLEX (PKMTR)

Note: This is a ROCKET BODY
aabbcc
Your satellite tracking list
Your tracking list is empty




NASA's NSSDC Master Catalog

Two Line Element Set (TLE):
1  8874U 76051B   20294.62079547 +.00000069 +00000-0 +56469-4 0  9992
2  8874 082.9620 181.2835 0025060 124.6248 235.7276 13.74971242226264
Source of the keplerian elements: AFSPC